TimeEDT,TemperatureF,Dew PointF,Humidity,Sea Level PressureIn,VisibilityMPH,Wind Direction,Wind SpeedMPH,Gust SpeedMPH,PrecipitationIn,Events,Conditions,WindDirDegrees,DateUTC
12:55 AM,29.8,25.3,83,29.77,10.0,West,4.6,-,N/A,,Scattered Clouds,280,2013-03-25 04:55:00
1:55 AM,30.0,23.4,76,29.76,10.0,NW,3.5,-,N/A,,Mostly Cloudy,310,2013-03-25 05:55:00
2:55 AM,28.9,20.5,71,29.75,10.0,NW,4.6,-,N/A,,Mostly Cloudy,310,2013-03-25 06:55:00
3:55 AM,28.4,21.0,74,29.75,10.0,NNW,5.8,-,N/A,,Mostly Cloudy,330,2013-03-25 07:55:00
4:55 AM,30.4,21.7,70,29.73,10.0,North,5.8,-,N/A,,Mostly Cloudy,360,2013-03-25 08:55:00
5:55 AM,31.6,22.6,69,29.72,10.0,North,6.9,-,N/A,,Mostly Cloudy,10,2013-03-25 09:55:00
6:55 AM,31.8,23.0,70,29.72,10.0,North,5.8,-,N/A,,Overcast,10,2013-03-25 10:55:00
7:55 AM,33.3,24.4,70,29.72,10.0,NE,6.9,-,N/A,,Mostly Cloudy,40,2013-03-25 11:55:00
8:55 AM,35.8,26.6,69,29.73,10.0,NNE,9.2,-,N/A,,Mostly Cloudy,30,2013-03-25 12:55:00
9:55 AM,37.8,28.2,68,29.72,10.0,NNE,11.5,-,N/A,,Mostly Cloudy,30,2013-03-25 13:55:00
10:55 AM,39.6,28.4,64,29.70,10.0,ENE,9.2,-,N/A,,Mostly Cloudy,70,2013-03-25 14:55:00
11:55 AM,39.4,29.3,67,29.68,10.0,ENE,13.8,-,N/A,,Mostly Cloudy,60,2013-03-25 15:55:00
12:55 PM,39.0,29.7,69,29.67,10.0,East,12.7,-,N/A,,Mostly Cloudy,90,2013-03-25 16:55:00
1:41 PM,39.2,30.2,70,29.66,10.0,ENE,10.4,-,N/A,,Overcast,70,2013-03-25 17:41:00
1:55 PM,38.7,30.7,73,29.66,10.0,ENE,13.8,-,N/A,,Overcast,70,2013-03-25 17:55:00
2:55 PM,38.5,30.6,73,29.64,10.0,East,13.8,-,N/A,,Mostly Cloudy,80,2013-03-25 18:55:00
3:55 PM,38.3,30.6,74,29.60,10.0,ENE,15.0,-,N/A,,Mostly Cloudy,70,2013-03-25 19:55:00
4:55 PM,39.6,30.4,70,29.57,10.0,NE,12.7,-,N/A,,Mostly Cloudy,50,2013-03-25 20:55:00
5:40 PM,39.2,30.2,70,29.58,10.0,ENE,11.5,-,N/A,,Mostly Cloudy,70,2013-03-25 21:40:00
5:55 PM,38.8,29.7,70,29.57,10.0,ENE,13.8,-,N/A,,Mostly Cloudy,60,2013-03-25 21:55:00
6:55 PM,37.6,30.6,76,29.58,10.0,NE,11.5,-,N/A,,Mostly Cloudy,50,2013-03-25 22:55:00
7:55 PM,37.4,30.0,75,29.58,10.0,NNE,4.6,-,N/A,,Mostly Cloudy,20,2013-03-25 23:55:00
8:55 PM,37.4,29.5,73,29.59,10.0,North,5.8,-,N/A,,Mostly Cloudy,10,2013-03-26 00:55:00
9:55 PM,36.7,28.2,71,29.58,10.0,North,9.2,-,N/A,,Overcast,350,2013-03-26 01:55:00
10:55 PM,36.7,27.0,68,29.57,10.0,North,5.8,-,N/A,,Overcast,10,2013-03-26 02:55:00
11:55 PM,36.9,25.2,63,29.56,10.0,North,12.7,-,N/A,,Overcast,360,2013-03-26 03:55:00